Lid_Strength_Index
-0 1 2 3 7 8 9 8 6 6 6 5 4 6 6 5 7 9 1 0 -0 -0 -1 -1 -1 -1 -1 -1 -1 -1 -1 -1 -1 -1 -1 -1 -1 -1 -1 -1 -1 -1 -1 -1 -1 -1 -1 -1 -1
2 2 3 4 9 10 9 7 7 5 5 5 5 4 5 6 3 3 2 0 -0 -0 -1 -1 -1 -1 -1 -1 -1 -1 -1 -1 -1 -1 -1 -1 -1 -1 -1 -1 -1 -1 -1 -1 -1 -1 -1 -1 -1
2 2 5 7 8 10 9 8 7 5 5 6 6 4 4 5 3 2 1 -0 -0 -0 -1 -1 -1 -1 -1 -1 -1 -1 -1 -1 -1 -1 -1 -1 -1 -1 -1 -1 -2 -1 -1 -1 -1 -1 -1 -1 -1
3 4 5 9 9 8 8 8 7 7 6 5 5 6 4 1 2 1 0 -0 -0 -0 -1 -1 -1 -1 -1 -1 -1 -1 -1 -1 -1 -1 -1 -1 -1 -1 -1 -1 -2 -1 -1 -1 -1 -1 -1 -1 -1
3 5 8 9 9 8 7 7 7 7 7 6 5 6 5 2 1 0 0 0 0 -0 -1 -1 -1 -1 -1 -1 -1 -1 -1 -1 -1 -1 -1 -1 -1 -1 -1 -1 -1 -1 -1 -1 -1 -1 -1 -1 -1
6 6 10 10 9 8 7 6 7 7 6 6 6 6 4 1 1 0 0 0 -0 -0 -0 -1 -1 -1 -1 -1 -1 -1 -1 -1 -1 -1 -1 -1 -1 -1 -1 -1 -1 -1 -1 -1 -1 -1 -1 -1 -2
7 8 10 9 9 9 7 6 7 7 6 6 5 6 4 2 1 0 0 -0 -0 -0 -0 -1 -1 -1 -1 -1 -1 -1 -1 -1 -1 -1 -1 -1 -1 -1 -1 -1 -1 -1 -1 -1 -1 -1 -1 -2 -2
5 7 10 9 10 9 7 7 6 6 6 4 4 6 5 3 1 0 0 0 0 -0 -0 -0 -1 -1 -1 -1 -1 -1 -1 -1 -1 -1 -1 -1 -1 -1 -1 -1 -1 -1 -1 -1 -1 -1 -1 -1 -1
6 9 10 10 10 9 7 8 6 6 7 6 5 5 3 2 1 1 2 2 1 0 0 -0 -0 -1 -1 -1 -1 -1 -1 -1 -1 -1 -1 -1 -2 -2 -2 -1 -1 -1 -1 -1 -1 -1 -1 -1 -1
7 9 10 8 8 8 8 7 7 8 7 7 6 4 3 2 2 2 2 3 2 1 1 -0 -0 -0 -1 -1 -1 -2 -1 -2 -2 -2 -2 -2 -2 -2 -2 -2 -1 -1 -1 -1 0 -1 -1 -1 -2
7 9 8 7 7 7 7 7 6 7 8 7 6 5 4 4 3 2 2 2 3 1 1 0 -0 -1 -1 -1 -1 -1 -1 -1 -2 -2 -2 -2 -2 -2 -1 -1 -2 -2 -2 -1 -1 -1 -2 -1 -1
8 7 7 7 6 6 7 6 7 6 6 5 5 4 4 4 3 2 2 2 2 2 1 1 0 -0 -1 -1 -1 -1 -1 -1 -1 -1 -2 -1 -1 -1 -1 -1 -1 -2 -1 -2 -1 -1 -2 -2 -2
7 7 6 6 6 6 6 7 7 6 5 4 4 4 4 3 2 1 1 2 1 2 2 1 0 -0 -0 -1 -1 -1 -1 -1 -1 -1 -2 -1 -1 -1 -1 -1 -1 -1 -1 -1 -1 -2 -1 -2 -2
7 7 6 6 6 6 7 7 6 5 4 4 4 4 3 3 2 1 1 1 1 1 2 1 1 -0 -0 -0 -1 -0 -1 -1 -1 -1 -1 -2 -1 -1 -1 -1 -1 -1 -1 -1 -1 -2 -2 -2 -2
6 7 7 7 6 7 6 8 7 5 4 4 4 3 3 2 2 2 1 1 1 1 0 1 0 0 -0 -0 -1 -1 -1 -1 -1 -1 -2 -2 -2 -2 -1 -1 -1 -1 -1 -1 -2 -1 -2 -1 -1
7 7 9 6 5 5 6 8 6 4 4 4 4 4 3 2 1 1 1 0 0 0 1 1 1 0 -0 -0 -0 -0 -1 -1 -1 -1 -1 -2 -2 -2 -1 -1 -1 -1 -1 -1 -1 -1 -1 -1 -1
7 10 9 8 5 6 6 8 5 4 4 4 4 3 3 3 2 1 0 0 0 0 0 1 0 1 0 -0 -0 -0 -1 -1 -1 -1 -1 -1 -1 -1 -1 -1 -1 -1 -1 -1 -1 -1 -1 -0 -1
11 10 9 9 7 6 7 7 5 4 4 4 4 4 3 3 2 1 0 0 0 0 0 1 1 0 1 0 -0 -0 -0 -0 -1 -1 -1 -1 -1 -1 -1 -1 -1 -1 -0 -0 -0 -1 -1 -1 -0
8 9 10 8 6 7 8 8 6 5 5 5 4 4 3 3 2 1 1 0 0 0 1 1 1 1 1 1 1 1 1 0 -0 -1 -1 -1 -1 -1 -1 -1 -1 -1 -0 -1 -0 -0 0 0 -0
8 10 10 8 6 7 8 8 6 5 5 4 4 4 3 3 2 2 1 1 1 1 1 1 1 1 1 1 1 0 0 0 -0 -0 -1 -1 -1 -1 -1 -1 -0 -1 -0 -0 -0 -0 1 0 -0
8 10 10 10 8 7 8 9 7 6 5 4 4 3 3 3 3 2 2 1 1 1 1 1 1 1 1 1 0 0 0 0 1 1 0 -0 -1 -1 -1 -1 -1 -1 -1 0 -0 -0 0 2 0
11 7 8 9 10 12 8 13 9 7 6 5 4 4 4 3 2 2 2 1 1 1 1 1 1 1 1 0 1 1 2 2 1 1 -0 -0 -1 -1 -1 -1 -1 -1 -0 -0 0 -0 -0 -0 1
9 7 8 9 10 10 10 12 9 7 8 6 5 4 4 3 3 3 2 1 1 1 1 1 1 1 1 1 1 1 2 1 1 0 0 -0 -0 -1 -1 -1 -1 -1 -0 -0 1 -0 -0 0 0
6 8 8 9 10 13 10 11 10 9 8 6 5 4 4 3 3 2 2 1 1 1 1 1 1 1 1 1 1 1 1 1 2 1 2 1 0 0 -1 -1 -1 -1 0 1 0 -1 -1 -1 -0
8 10 14 14 14 14 9 11 10 7 6 5 5 5 4 3 3 3 2 2 1 1 1 2 2 2 2 1 1 1 1 1 1 1 1 1 1 1 0 -1 -0 1 2 1 -1 -1 -1 -1 -0
9 11 15 19 16 14 10 13 10 6 5 4 5 4 4 3 3 3 2 2 2 1 1 2 2 2 2 2 1 1 1 1 1 1 1 1 1 0 -0 -1 1 2 2 1 -1 1 -0 -1 -0
10 13 9 13 12 15 12 9 7 6 6 5 5 4 4 4 3 3 2 2 2 1 1 2 2 2 2 2 1 1 1 1 1 0 0 0 -0 0 -0 1 2 2 2 0 -0 2 -0 -1 -1
8 8 14 14 19 19 13 12 11 8 7 6 6 5 4 3 3 3 2 2 2 1 1 1 2 2 2 2 1 1 1 1 0 0 1 0 -0 -0 1 2 3 3 2 0 0 1 -0 -0 1
10 12 12 13 14 18 17 13 8 7 6 6 5 4 4 4 3 3 2 2 2 1 1 1 1 2 2 1 2 1 1 1 1 1 0 0 0 1 2 3 3 3 2 0 1 1 0 0 1
8 10 11 17 16 16 15 15 7 6 5 5 5 4 4 4 3 3 2 2 2 2 2 2 2 2 2 1 2 1 1 1 1 1 1 0 2 2 2 3 3 4 2 0 1 0 1 1 2